User: anonymous   Login
Location: New Town
(33.2710°N, 90.7534°W)
Time: 12:16:32
(UTC+00:00)
Language:

Transit 4A - Orbit

View from above orbital plane
View from above orbital plane
View from above satellite
View from above satellite

Ground track
Ground track

The orbit data is extracted from the following two-line orbital elements,

1   116U 61015A   21133.24107848 -.00000077  00000-0 -27089-6 0  9993
2   116  66.8080 121.9947 0070921 142.0079 218.6034 13.91788931 38200
Epoch (UTC): 13 May 2021 05:47:09
Eccentricity: 0.0070921
inclination: 66.8080°
perigee height: 870 km
apogee height: 974 km
right ascension of ascending node: 121.9947°
argument of perigee: 142.0079°
revolutions per day: 13.91788931
mean anomaly at epoch: 218.6034°
orbit number at epoch: 3820

The dashed part of the orbit path shows where the satellite is in the earth's shadow,  

DLR